LogoCoinalyze
    Ad-Free Version Home Markten Financieringspercentages
    Futures data
    • Aggregated data (Munten)
    • Individuele grafieken
    • Globale grafieken
    Meldingen
    TA
    Bitcoin Ethereum BNB Ripple Tron ZCash Dogecoin Monero Chainlink UNUS SED LEO Cardano Stellar Lumens Bitcoin Cash Litecoin Hedera Cronos Polkadot Ethereum Classic Algorand Cosmos Quant Dash VeChain Bitcoin SV BitTorrent Terra Tezos Decred Iota The Graph THETA Decentraland NEO Chiliz MultiversX Golem Horizen Basic Attention Token Qtum 0x DigiByte Beam RIF Token FTX Token Holo FUNToken Ontology Zilliqa aelf Nano Enjin Coin Ravencoin Mask Network Verge Siacoin Status WINk Waves IoTeX iExec RLC Power Ledger Steem Kyber Network Crystal Lisk Ark WOO Network IOST Ardor WAX Icon Storj Wanchain Loopring Bitcoin Diamond Augur AdEx Bitcoin Gold OmiseGO NEM MonaCoin BitShares Ren Komodo V Systems Nuls Mithril SOLVE Maker EOS Aion Nebulas HedgeTrade Bread Fetch.ai TomoChain Polygon Fantom Waltonchain GXChain Bytom Metaverse ETP MaidSafeCoin QASH
    Rangschikken op:
    Meer
    • API
    • Candlestick-patronen
    • Doneer
    • Contact
    • Sitemap
    • Privacy Policy
    • Disclaimer
    • Theme:
    Nederlands
    • English
    • Français
    • Русский
    • Deutsch
    • Türkçe
    • Português (BR)
    • Español
    • 한국어
    • 简体中文
    • 日本語
     
    Aanmelden / Registreren
    Markets/ Pepe/ PEPE naar USD/ PEPEUSD Coinbase
    Trades
    WL
    Chat
    Stats
    Nieuws
    ⦷
    AAA
    0.00000379 112151220.00000000 20:01:16
    0.00000379 149062500.00000000 20:01:16
    0.00000379 22446200.00000000 20:00:52
    0.00000379 154858684.00000000 20:00:52
    0.00000379 291000.00000000 20:00:52
    0.00000379 65045316.00000000 20:00:52
    0.00000379 30800000.00000000 20:00:52
    0.00000379 50213198.00000000 20:00:52
    0.00000379 30800000.00000000 20:00:52
    0.00000379 218722059.00000000 20:00:52
    0.00000379 3.00000000 20:00:52
    0.00000379 364780573.00000000 20:00:52
    0.00000379 30800000.00000000 20:00:52
    0.00000380 1215416.00000000 20:00:36
    0.00000381 1510431.00000000 19:59:55
    0.00000381 745748.00000000 19:59:52
    0.00000381 4995000.00000000 19:59:46
    0.00000381 47198940.00000000 19:59:32
    0.00000380 19740836.00000000 19:58:41
    0.00000381 83470534.00000000 19:57:15
    0.00000381 30800000.00000000 19:57:15
    0.00000380 261780.00000000 19:57:05
    0.00000381 567043.00000000 19:56:08
    0.00000380 3.00000000 19:55:25
    0.00000380 234399550.00000000 19:55:25
    0.00000380 150025808.00000000 19:55:25
    0.00000380 10311484.00000000 19:55:24
    0.00000380 20488516.00000000 19:55:24
    0.00000380 30800000.00000000 19:55:24
    0.00000380 25573263.00000000 19:54:55
    0.00000380 5000.00000000 19:54:49
    0.00000380 121112650.00000000 19:54:48
    0.00000379 15943576.00000000 19:54:04
    0.00000380 3389447.00000000 19:53:29
    0.00000379 717000.00000000 19:52:27
    0.00000379 30800000.00000000 19:52:16
    0.00000379 47198940.00000000 19:52:16
    0.00000379 197248293.00000000 19:52:16
    0.00000379 149062500.00000000 19:52:16
    0.00000379 47198940.00000000 19:52:13
    0.00000378 86010188.00000000 19:51:35
    0.00000378 730447000.00000000 19:51:15
    0.00000378 333057728.00000000 19:51:03
    0.00000378 755437870.00000000 19:51:00
    0.00000378 244562130.00000000 19:51:00
    0.00000378 30800000.00000000 19:50:49
    0.00000378 396825396.00000000 19:50:49
    0.00000378 396825396.00000000 19:50:49
    0.00000378 3.00000000 19:50:49
    0.00000378 30800000.00000000 19:50:27
    0.00000377 6714384.00000000 19:49:46
    0.00000377 686288365.00000000 19:49:46
    0.00000377 5291005.00000000 19:49:46
    0.00000377 6869963.00000000 19:49:46
    0.00000377 66347480.00000000 19:49:46
    0.00000377 26210670.00000000 19:49:46
    0.00000377 3.00000000 19:49:46
    0.00000377 386586.00000000 19:49:46
    0.00000377 292000.00000000 19:49:46
    0.00000377 329966.00000000 19:49:46
    0.00000377 2560.00000000 19:49:46
    0.00000377 149062500.00000000 19:49:46
    0.00000377 397679144.00000000 19:49:46
    0.00000377 397679144.00000000 19:49:46
    0.00000378 2887964.00000000 19:48:55
    0.00000378 177304964.00000000 19:48:40
    0.00000378 613745801.00000000 19:48:40
    0.00000378 386254199.00000000 19:48:40
    0.00000378 44854881.00000000 19:48:40
    0.00000378 177304964.00000000 19:48:40
    0.00000378 709219859.00000000 19:48:40
    0.00000378 3.00000000 19:48:40
    0.00000378 292000.00000000 19:48:40
    0.00000378 1587301.00000000 19:48:40
    0.00000378 1583243.00000000 19:48:40
    0.00000378 13225.00000000 19:48:40
    0.00000378 2637.00000000 19:48:40
    0.00000378 149062500.00000000 19:48:40
    0.00000379 10000000.00000000 19:47:45
    0.00000379 30800000.00000000 19:47:43
    0.00000379 30800000.00000000 19:47:43
    0.00000379 47198940.00000000 19:47:39
    0.00000379 149062500.00000000 19:47:39
    0.00000379 30800000.00000000 19:47:38
    0.00000379 135444313.00000000 19:47:36
    0.00000379 47198940.00000000 19:47:36
    0.00000379 307046454.00000000 19:47:36
    0.00000379 149062500.00000000 19:47:36
    0.00000379 30800000.00000000 19:47:36
    0.00000379 57294399.00000000 19:47:35
    0.00000380 8657216.00000000 19:47:16
    0.00000379 30800000.00000000 19:47:11
    0.00000379 13738673.00000000 19:47:10
    0.00000379 63998641.00000000 19:47:08
    0.00000379 64.00000000 19:47:08
    0.00000379 177304900.00000000 19:47:08
    0.00000379 395257.00000000 19:47:07
    0.00000380 1312500.00000000 19:46:02
    0.00000380 1279184.00000000 19:46:01
    0.00000380 2729489.00000000 19:44:18
    Afmelden
    AAA
    Help
    🙂 🤣 😎 🤗 😛 😉 😜 🤑 🤔 😑 😴 😕 🙃 😲 😇 🙁 😢 😬 😟 😠 🕺 🏃 💪 ✌ 👌 👍 👎 👏 👋 🤝 🍺 🍻 🐋 🐟 🦈 🗽 🚄 ✈ 🛑 🚀 🏦 🌚 ⭐ 🌞 ⚡ 🏆 💰 💲 🔨 ❓ ❗ 💯 🔶 🏁
    ☺
    Aanmelden of Registreren en chat
    24 Uur
    Verandering
    +11.80%
    Volume
    1,084,014,949,640
    Hoog
    0.00000388
    Laag
    0.00000338
    7 Dagen
    Verandering
    -1.56%
    Volume
    4,408,964,682,859
    Hoog
    0.00000401
    Laag
    0.00000336
    30 Dagen
    Verandering
    +30.69%
    Volume
    20,984,595,769,094
    Hoog
    0.00000456
    Laag
    0.00000253
    DOGE, SHIB, PEPE, or Something Else: Which Meme Coin Can Make History in September? (3 AIs Weigh In)
    "DOGE remains the most likely to record the largest move in dollar terms and lead the entire sector," ChatGPT stated.
    cryptopotato.com
    Sept 3, 2026 00:41
    Pepe price rallies 25% as whale demand and futures interest surge
    Key takeaways Pepe has gained 25% this week, including a combined 22% advance over the previous two days. Seven whale transactions worth more than $1 million each occurred Thursday, the highest...
    coinjournal.net
    Aug 21, 2026 08:41
    PEPE Supply on Exchanges Just Took a Massive Hit – What’s Next?
    A drop in PEPE exchange balances has added to bullish expectations despite muted trader interest.
    cryptopotato.com
    Aug 6, 2026 20:02
    PEPE Exchange Outflows Hit Nearly 2-Year High as Whales Accumulate
    Pepe (PEPE) recorded its largest single-day exchange outflow since November 2024, with 4.54 trillion tokens leaving trading platforms, signaling that holders are moving supply away from immediate...
    beincrypto.com
    Aug 6, 2026 04:57
    Meme Coin Based on White House Shooter Conspiracy Rallies 320%
    $HENRY surged 300% after a 2023 Pepe tweet appeared to name the White House shooter, fueling a viral time-travel meme. The post Meme Coin Based on White House Shooter Conspiracy Rallies 320%...
    beincrypto.com
    Apr 27, 2026 16:11
    PEPE surges 4% as market sentiment improves, eyes Key resistance breakout
    Key takeaways Pepe extends gains on Wednesday, stretching its rally from the 50-day EMA. Derivatives data show heightened retail activity as risk-on sentiment returns to the market. Pepe (PEPE) is...
    coinjournal.net
    Apr 22, 2026 11:44
    Why The PEPE Price Could Stage A 55X Rally To Reach New $0.0001 ATH
    The PEPE price has now started to edge back into bullish conversations after the recent inflows into the crypto market. The last time PEPE’s weekly chart printed the kind of structure now...
    newsbtc.com
    Apr 21, 2026 15:30
    Pepe (PEPE) surges 9%, drawing interest from whales
    Key takeaways PEPE is up 9% in the last 24 hours, making it one of the best performers among the top 50 cryptocurrencies by market cap. The rally comes amid renewed interest from whales and retail...
    coinjournal.net
    Apr 16, 2026 07:40
    Murad Says SPX6900 (SPX) Is Primed for a Rally — Is He Right This Time?
    Crypto influencer Murad Mahmudov claims SPX6900 (SPX) is stabilizing at the same market cap level where Dogecoin (DOGE) and Pepe (PEPE) consolidated before their explosive rallies. The...
    beincrypto.com
    Apr 5, 2026 21:36
    The Shiba Inu Of This Cycle: Analyst Shares Why It Is Better To Buy PEPE Now
    In the bull market cycle of 2021-2022, the Shiba Inu meme coin made waves in a way that changed the face of meme coins forever. This came after Dogecoin’s initial 36,000% rally, and Shiba Inu...
    newsbtc.com
    Apr 4, 2026 07:30
    PEPE Explodes by 18% Amid Altcoin Rally, BTC Tapped $74K: Market Watch
    The frog-themed meme coin is today's biggest gainer, followed by TAO, DOT, and BONK.
    cryptopotato.com
    Mar 16, 2026 10:56
    Should PEPE traders brace for volatility as short squeeze potential builds?
    The memecoin market has seen its collective market capitalization drop by 48% over the past year, and 6.9% over the past month, according to CoinMarketCap. According to Glassnode, the memecoin...
    ambcrypto.com
    Mar 7, 2026 18:00
    Typ de opdracht simpelweg in de chat. Vervang nick1 door de echte nick
    • /ignore nick1 Negeer een chatgebruiker
    • /unignore nick1 Een chatgebruiker niet meer negeren
    • /ignorelist Toon chatgebruikers die je negeert